Find Starlink 32612

NORAD ID: 61972 Int'l Des: 2024-210 Owner: SPXS Country: US Constellation: starlink operational
LEOCIRCULAR

当前视图

正在加载3D地球...

About Starlink 32612

Starlink 32612 (NORAD 61972) is a starlink constellation satellite (v2 mini) launched Nov 14, 2024 by SPXS of US. It operates in LEO, CIRCULAR orbit with a mass of 730.00 kg.

即将过境

Passes for default location (London). Set your location on the main map for personalized predictions.

高度历史

Loading altitude history...

两行轨道根数

1 61972U 24210P 26264.04396611 .00012261 00000-0 45422-3 0 9996
2 61972 43.0040 156.8366 0001673 260.7858 99.2804 15.27588820104751
Epoch: Sep 21, 2026 • Age: 15 hours

当前状态

高度 495.2 km
远地点 / 近地点 N/A
速度 7.62 km/s
星下点 -43.15°S, 175.99°E
发射日期 Nov 14, 2024
运行时间 1.8 years
类型 internet

技术详情

分类 Payload
质量 730.00 kg
干质量 700.00 kg
长度 0.30 m
跨度 29.00 m
形状 ? Box + pan
制造商 SPXS
平台类型 Starlink V2M
阶段状态 In Orbit
所有者/国家 SPXS/US

Most Searched